Weather Roundup
Issued by NWS

Home | Current Version | Previous Version | Text Only | Print | Product List | Glossary On
Versions: 1 2 3 4 5 6 7 8 9 10 11 12 13 14 15 16 17 18 19 20 21 22 23 24 25 26 27 28 29 30 31 32 33 34 35 36 37 38 39 40 41 42 43 44 45 46 47 48 49 50
000
NZUS93 KARX 230159
HRRWXR

CURRENT HOURLY OBSERVATIONS ACROSS
MUCH OF THE UPPER MISSISSIPPI VALLEY
NATIONAL WEATHER SERVICE LA CROSSE WI
900 PM CDT TUE AUG 22 2017


...SOUTHEAST MINNESOTA...


CITY           SKY/WX    TMP DP  RH WIND       PRES   REMARKS
ROCHESTER      CLEAR     57  51  80 W8        30.07R
ROCHESTER/MAYO FAIR      64  49  58 W12       30.06R
WINONA         CLEAR     63  52  67 NW3       30.03R
AUSTIN         CLEAR     63  50  63 NW8       30.08R
ALBERT LEA     CLEAR     63  54  72 W3        30.09S
DODGE CENTER   CLEAR     61  48  63 W7        30.07S
PRESTON        CLEAR     58  49  71 W9        30.07R
OWATONNA       CLEAR     55  52  88 W5        30.08R
FARIBAULT      CLEAR     63  52  67 W5        30.07S
$$

...ELSEWHERE IN MINNESOTA...


CITY           SKY/WX    TMP DP  RH WIND       PRES   REMARKS
MINNEAPOLIS    CLEAR     67  49  52 W9        30.04R
INTNL FALLS    PTCLDY    55  47  74 NW8       29.99R
DULUTH         PTCLDY    57  52  83 NW5       29.98R
RED WING       CLEAR     61  48  63 CALM      30.02S
REDWOOD FALLS  CLEAR     62  50  64 W5        30.09R
MANKATO        CLEAR     60  53  77 W5        30.09R
WORTHINGTON    NOT AVBL
FAIRMONT       CLEAR     60  53  77 NW5       30.11S
$$

...SOUTHWEST WISCONSIN...


CITY           SKY/WX    TMP DP  RH WIND       PRES   REMARKS
LA CROSSE      CLEAR     66  54  63 NW8       30.01R
PRAIRIE DU CHI CLEAR     64  50  61 CALM      30.02S
BOSCOBEL       CLEAR     61  55  81 CALM      30.02R
LONE ROCK      NOT AVBL
PLATTEVILLE    CLEAR     61  54  76 W5        30.03S
FORT MC COY    CLEAR     60  52  74 W3        30.02R
MAUSTON-NEW LI CLEAR     62  51  67 W6        29.99R
VIROQUA        FAIR      61  53  74 W6        30.03R
WIS DELLS      CLEAR     63  48  59 W5        29.99R
$$

...ELSEWHERE IN WISCONSIN...


CITY           SKY/WX    TMP DP  RH WIND       PRES   REMARKS
MILWAUKEE      CLEAR     71  49  45 W7        29.96R
MADISON        PTCLDY    64  51  62 VRB3      29.99R
GREEN BAY      CLEAR     63  52  67 W7        29.93R
EAU CLAIRE     NOT AVBL
BLACK RVR FLS  FAIR      61  47  60 NW5       30.00R
MEDFORD        PTCLDY    59  48  67 W7        29.98S
WAUSAU         CLEAR     63  49  60 NW9       29.95S
WIS RAPIDS     CLEAR     62  50  64 W5        29.99R
MARSHFIELD     CLEAR     59  48  67 W6        29.98S
RICE LAKE      CLOUDY    60  50  68 W3        30.01S
$$

...NORTHEAST IOWA...


CITY           SKY/WX    TMP DP  RH WIND       PRES   REMARKS
WATERLOO       CLEAR     61  52  72 W6        30.06R
DUBUQUE        CLEAR     62  51  67 NW9       30.04S
DECORAH        CLEAR     63  52  67 VRB3      30.05R
MASON CITY     CLEAR     57  51  80 NW8       30.11R
CHARLES CITY   CLEAR     59  55  88 W5        30.08R
OELWEIN        CLEAR     59  55  88 NW7       30.07S
$$

...ELSEWHERE IN IOWA...


CITY           SKY/WX    TMP DP  RH WIND       PRES   REMARKS
DES MOINES     PTCLDY    67  51  56 NW5       30.09R
IOWA CITY      CLEAR     66  53  63 NW6       30.07R
FORT DODGE     CLEAR     59  52  77 CALM      30.12R
MARSHALLTOWN   CLEAR     59  55  87 NW6       30.08R
CEDAR RAPIDS   CLEAR     60  54  80 NW5       30.06R
$$

...NORTHERN ILLINOIS...


CITY           SKY/WX    TMP DP  RH WIND       PRES   REMARKS
CHICAGO-OHARE  PTCLDY    71  49  45 NW10      29.98R
CHICAGO-MIDWAY PTCLDY    72  50  45 NW10      29.97R
MOLINE         CLEAR     67  52  58 NW7       30.04R
ROCKFORD       PTCLDY    65  51  60 NW8       30.02R
PEORIA         CLEAR     66  57  72 NW5       30.03R
$$

NOTE: "FAIR" INDICATES FEW OR NO CLOUDS BELOW 12,000 FEET WITH NO
SIGNIFICANT WEATHER AND/OR OBSTRUCTIONS TO VISIBILITY. WIND
SPEEDS ARE IN MILES-PER-HOUR.




USA.gov is the U.S. government's official web portal to all federal, state and local government web resources and services.